Location: Appeville
(49.3218°N, 1.3427°W)
Time: 23:10:05
(UTC+00:00)

CZ-4C R/B - Pass Details

Date: 08 December 2019
Orbit: 647 x 1355 km, 63.4° (Epoch: 18 January)

Event Time Altitude Azimuth Distance (km) Brightness Sun altitude
Exits shadow 06:12:16 20° 284° (WNW) 2,483 4.0 -14.6°
Maximum altitude 06:15:43 27° 247° (WSW) 2,191 3.9 -14.1°
Drops below altitude 10° 06:22:15 10° 194° (SSW) 3,348 5.4 -13.1°
Sets 06:25:42 0° 183° (S) 4,354 6.1 -12.6°
